This is the latest recevied weather packets stored in our database for station/object IA5ITY-13. If no packets are shown the sender has not sent any weather packets the latest 10 day(s).
| Time | Temp. | Humidity | Pressure | Rain* | Wind** | Luminosity | Snow |
|---|---|---|---|---|---|---|---|
| 1778141714 | 20° C | 58% | 1012.9 hPa | 0 mm | - | - | - |
| 1778141413 | 21.11° C | 58% | 1012.9 hPa | 0 mm | - | - | - |
| 1778141109 | 20° C | 59% | 1012.8 hPa | 0 mm | - | - | - |
| 1778140831 | 20° C | 60% | 1012.8 hPa | 0 mm | - | - | - |
| 1778140510 | 20° C | 61% | 1012.7 hPa | 0 mm | - | - | - |
| 1778140213 | 21.11° C | 58% | 1012.8 hPa | 0 mm | - | - | - |
| 1778139913 | 21.11° C | 58% | 1012.8 hPa | 0 mm | - | - | - |
| 1778139613 | 21.11° C | 58% | 1012.9 hPa | 0 mm | - | - | - |
| 1778139309 | 20° C | 60% | 1012.8 hPa | 0 mm | - | - | - |
| 1778139024 | 20° C | 60% | 1012.8 hPa | 0 mm | - | - | - |
| 1778138710 | 21.11° C | 59% | 1012.9 hPa | 0 mm | - | - | - |
| 1778138414 | 22.22° C | 58% | 1013 hPa | 0 mm | - | - | - |
| 1778138113 | 21.11° C | 57% | 1013.1 hPa | 0 mm | - | - | - |
| 1778137814 | 22.22° C | 58% | 1013.1 hPa | 0 mm | - | - | - |
| 1778137510 | 22.22° C | 58% | 1012.9 hPa | 0 mm | - | - | - |
| 1778137233 | 22.22° C | 60% | 1012.9 hPa | 0 mm | - | - | - |
| 1778136911 | 22.22° C | 63% | 1012.8 hPa | 0 mm | - | - | - |
| 1778136614 | 22.22° C | 63% | 1012.8 hPa | 0 mm | - | - | - |
| 1778136314 | 21.11° C | 65% | 1012.7 hPa | 0 mm | - | - | - |
| 1778136015 | 21.11° C | 70% | 1012.6 hPa | 0 mm | - | - | - |
| 1778135709 | 21.11° C | 73% | 1012.6 hPa | 0 mm | - | - | - |
| 1778135423 | 21.11° C | 82% | 1012.5 hPa | 0 mm | - | - | - |
| 1778135110 | 20° C | 88% | 1012.5 hPa | 0 mm | - | - | - |
| 1778134813 | 18.89° C | 86% | 1012.5 hPa | 0 mm | - | - | - |
| 1778134513 | 20° C | 90% | 1012.5 hPa | 0 mm | - | - | - |
* Rain latest hour (hover to see other rain measurements)
** Current wind speed in m/s (hover to see current wind gust speed)